GEFSMA_500_meanwind_042.txt.gz
Wind_Speed
26 25 24 22 22 21 21 20 19 18 16 15 14 13 11 10 9 9 9 8 7 6 6 6 6 5 5 5 6 6 6 6 6 6 6 5 5 5 5 5 5 6 6
30 28 28 26 25 24 23 23 21 20 19 17 16 15 14 13 12 12 12 11 10 9 9 8 9 8 8 8 8 9 9 9 9 9 9 9 8 8 8 8 8 8 8
33 32 32 30 29 28 27 26 24 23 21 20 18 17 16 16 16 15 15 15 13 12 12 11 11 11 11 11 11 11 11 11 11 11 11 11 11 12 12 11 11 11 11
37 36 34 33 32 31 30 29 27 26 24 22 21 19 18 17 18 17 17 18 16 15 14 14 14 14 13 13 13 13 13 13 14 14 14 14 14 14 14 14 14 13 13
41 39 38 36 36 35 33 31 29 28 27 25 23 22 20 19 19 19 19 19 19 19 17 16 16 15 16 15 15 15 15 15 15 15 15 15 15 16 16 16 16 16 16
44 42 40 39 37 37 36 35 33 31 28 27 25 23 22 21 21 20 20 20 20 20 20 19 18 18 17 17 17 18 17 17 17 17 16 17 17 17 17 17 17 17 18
48 46 44 41 39 38 37 36 34 33 30 28 25 24 23 23 23 23 22 22 22 22 22 22 21 20 20 19 19 19 19 19 19 19 18 18 18 18 18 18 19 19 19
50 48 47 46 41 38 37 36 33 32 32 29 26 23 22 22 22 23 23 24 23 23 23 23 23 23 22 22 21 21 21 21 21 20 20 20 20 20 20 20 20 20 20
50 49 47 47 44 41 37 36 34 32 31 29 28 25 22 22 21 20 21 22 23 24 24 24 24 23 23 23 23 22 22 22 22 22 22 22 21 21 21 21 22 22 21
49 49 46 46 45 42 39 37 36 35 32 29 27 26 25 24 23 21 21 21 22 23 24 24 24 24 23 23 23 23 23 23 23 24 24 24 23 23 23 23 23 23 23
45 46 46 44 43 42 41 39 37 34 33 30 28 27 25 25 23 23 22 23 23 23 23 24 25 25 24 24 24 25 25 25 24 24 25 25 25 24 24 24 24 24 24
40 42 42 41 41 41 40 40 37 35 33 32 30 29 27 27 26 24 24 24 24 23 22 23 24 25 25 24 25 26 27 26 26 25 26 26 26 26 26 25 25 25 26
33 36 37 37 37 38 38 40 38 36 34 32 30 30 30 29 29 28 26 26 26 26 25 25 25 25 25 25 25 27 27 27 27 26 27 27 27 27 27 27 27 27 26
27 29 31 33 34 35 36 38 38 37 35 32 31 31 30 30 30 29 29 28 28 28 27 27 27 27 26 26 26 27 27 28 27 28 28 28 28 28 28 28 28 28 27
19 22 25 29 31 32 34 35 36 35 35 34 34 33 31 31 31 30 30 30 29 29 28 28 28 29 29 29 29 30 29 29 29 29 30 30 30 30 29 29 30 29 29
12 16 20 24 26 28 31 32 33 34 34 35 35 34 34 33 32 32 31 31 31 30 30 29 30 30 31 30 30 31 31 31 31 31 31 31 32 31 31 31 30 30 28
9 11 15 18 21 24 26 28 30 32 33 34 35 35 35 35 35 34 34 33 32 32 32 31 31 31 31 32 31 32 32 32 32 32 32 31 31 32 32 31 30 28 27
6 8 11 13 16 19 22 24 26 29 31 32 33 34 35 35 36 36 34 34 34 33 33 32 31 31 30 30 30 29 30 30 30 31 31 31 30 30 30 29 28 27 25
6 5 6 9 11 15 18 21 23 25 27 29 30 31 32 33 34 35 34 34 34 34 33 32 30 30 29 29 28 27 27 26 26 27 28 28 28 27 26 25 24 23 23
8 7 5 6 8 11 15 18 20 22 24 26 27 29 30 31 32 33 34 34 34 34 33 32 31 29 29 29 26 26 25 23 23 25 24 24 24 23 22 21 20 19 19
11 9 8 7 8 10 12 15 18 20 23 24 26 27 28 29 29 29 30 31 32 32 32 31 30 29 28 26 24 23 22 21 21 22 21 20 19 18 18 17 16 16 17
13 12 11 10 10 11 12 14 16 18 20 21 23 24 25 26 27 27 28 28 29 29 29 28 28 27 25 24 22 21 20 20 21 20 18 16 15 14 14 14 14 14 14
16 15 14 13 12 12 13 14 15 16 18 20 21 22 22 23 24 24 24 24 24 24 25 24 23 23 24 23 22 22 21 21 19 18 17 16 15 14 13 13 13 13 13
19 18 17 15 13 13 12 12 13 15 17 18 19 20 20 21 21 20 20 20 20 20 20 21 21 21 21 22 22 21 20 19 17 16 16 15 13 12 11 11 11 12 13
21 20 19 17 15 14 13 12 12 13 14 15 17 18 18 18 18 18 18 17 18 18 18 19 19 19 19 19 19 19 18 17 15 15 14 13 12 11 11 10 10 10 10
22 22 21 19 17 16 14 12 11 11 11 13 14 15 16 15 16 16 16 15 15 15 16 16 17 18 17 16 16 16 15 14 13 13 12 11 10 10 9 8 8 7 7

GEFSMA_500_meanwind_048.txt.gz
Wind_Speed
29 30 29 28 28 28 27 25 24 22 21 19 17 15 15 14 14 12 11 10 9 9 7 6 6 5 4 3 2 1 1 0 0 0 1 1 2 2 3 3 4 5 6
30 30 31 30 29 29 29 28 27 25 24 23 21 19 19 17 17 16 15 14 12 11 10 9 8 7 6 5 5 4 3 2 2 2 3 3 3 4 4 5 6 6 7
33 33 32 32 31 30 29 30 29 28 27 26 24 23 21 20 20 20 19 18 16 14 13 12 11 10 9 8 7 7 6 5 5 5 5 5 5 6 6 7 7 8 8
39 38 35 34 34 34 34 33 31 30 30 28 27 25 24 23 24 24 23 21 19 18 16 15 14 13 12 11 10 10 9 8 8 8 7 7 7 8 8 9 9 9 10
41 40 40 38 36 35 35 35 34 32 31 30 29 28 28 27 28 27 26 24 22 21 20 18 17 15 14 13 13 12 12 11 11 10 10 10 10 10 10 10 11 11 11
40 41 41 40 39 37 36 36 34 33 32 32 31 30 29 30 30 29 28 26 25 23 22 21 20 19 17 16 15 14 14 14 13 13 13 12 12 12 12 12 12 12 13
38 39 40 40 40 39 37 37 35 33 32 32 32 31 30 31 31 31 30 28 27 26 24 23 23 21 20 19 18 16 16 16 15 15 15 15 15 14 14 14 14 14 14
38 38 40 40 40 40 40 38 37 35 33 31 31 32 32 31 32 32 31 30 30 28 27 25 24 24 23 22 20 19 18 18 18 17 17 17 17 17 16 16 15 15 16
38 37 38 40 40 41 40 39 39 37 35 34 32 32 32 32 33 32 32 31 30 30 29 28 27 26 25 24 23 22 21 20 20 19 19 19 19 19 18 18 17 17 17
37 37 38 39 40 41 41 40 40 40 38 36 34 33 33 33 34 34 33 32 31 30 29 29 29 28 27 26 24 23 22 22 21 20 20 20 20 20 20 19 19 19 19
35 35 37 38 39 41 41 41 41 41 39 38 37 36 35 34 35 36 35 34 32 31 29 29 29 29 28 27 25 24 24 23 23 22 21 21 21 21 21 21 21 21 21
30 32 34 36 38 39 41 42 42 41 40 40 39 38 36 35 35 37 37 37 35 33 30 29 28 28 27 27 27 26 25 25 24 23 23 23 22 22 22 22 22 22 22
24 27 29 31 35 37 39 41 42 42 41 41 41 40 39 38 37 38 38 37 36 35 34 32 30 29 27 27 27 26 25 25 25 25 24 24 24 24 24 24 24 24 24
16 19 22 26 30 34 38 40 41 42 41 40 41 41 39 38 38 40 39 38 37 37 35 34 32 30 29 28 26 26 26 26 25 25 25 25 25 26 26 25 25 25 25
11 13 16 19 23 28 33 38 41 41 41 40 40 40 39 38 39 40 39 38 37 37 36 35 34 32 31 30 28 28 28 28 27 27 26 26 26 27 27 27 27 27 27
7 8 11 14 18 22 27 32 36 40 40 39 38 38 38 38 37 39 40 39 39 37 36 36 35 33 32 32 30 29 29 28 28 29 28 28 28 27 28 28 29 29 30
8 7 7 9 11 16 20 25 30 35 36 37 38 38 37 38 37 37 37 37 37 37 37 37 36 35 34 33 32 31 30 31 31 29 29 30 30 30 31 30 30 31 30
10 8 7 7 8 10 14 19 24 29 32 34 36 37 37 37 38 38 38 37 37 37 37 37 36 36 35 35 34 33 33 32 31 30 29 29 29 30 31 31 31 30 29
12 10 8 7 7 7 11 15 19 22 26 30 32 33 34 34 36 38 39 38 37 37 37 37 36 36 35 34 34 33 32 32 30 29 28 28 28 29 30 29 29 29 28
14 12 10 8 7 7 8 12 15 18 21 25 27 29 30 31 32 33 35 37 37 37 36 36 36 35 34 33 33 32 31 30 29 28 28 28 28 28 28 27 27 26 25
15 14 12 10 9 8 9 10 13 16 19 22 24 25 27 29 29 29 30 32 34 35 33 33 33 32 32 31 30 30 28 28 28 28 28 28 28 28 27 26 25 24 22
17 15 14 12 11 9 10 11 12 14 16 19 21 23 24 25 26 27 27 28 29 29 30 30 30 30 30 30 29 29 28 29 28 27 27 26 26 25 25 23 22 21 19
19 17 16 14 13 11 10 11 12 13 15 17 18 20 22 22 23 24 25 25 25 25 26 27 27 27 28 29 29 29 28 28 27 26 26 25 24 23 22 21 19 18 17
20 19 18 16 14 13 11 11 11 12 14 16 17 18 19 20 21 21 21 22 22 23 24 25 25 26 26 26 26 26 27 27 26 25 24 23 23 22 20 19 18 17 16
22 21 20 18 17 15 12 10 10 10 13 15 16 17 19 19 19 19 20 20 21 21 22 22 22 23 24 25 25 26 26 26 26 25 24 23 22 21 19 18 17 15 14
24 23 22 21 19 17 14 11 9 8 10 12 14 16 17 18 18 18 18 19 19 19 20 20 21 22 22 23 24 25 25 25 24 23 23 22 21 19 18 17 16 14 13

GEFSMA_500_meanwind_054.txt.gz
Wind_Speed
28 27 27 28 28 27 26 24 24 23 22 21 20 18 17 15 13 11 10 9 8 7 6 5 5 4 4 4 3 3 3 3 3 2 2 2 1 1 1 0 1 1 2
33 32 30 28 30 29 28 27 26 26 25 24 24 23 21 19 17 15 14 12 11 10 9 8 7 6 6 5 4 4 3 3 2 2 1 1 0 0 1 1 1 2 3
39 37 35 33 32 31 30 29 28 26 25 26 27 26 25 24 22 20 18 16 15 13 12 11 10 9 8 7 6 5 5 4 3 3 2 2 2 2 2 2 3 3 4
43 42 40 39 37 34 33 31 30 29 27 27 28 29 28 27 26 24 22 21 19 17 15 14 13 12 11 10 9 8 7 7 6 5 5 4 4 4 4 4 4 5 5
42 43 43 43 42 40 37 35 33 31 29 29 29 30 31 31 30 28 26 24 22 20 19 17 16 15 14 13 12 11 10 9 9 8 7 7 7 6 6 6 6 6 7
41 42 42 44 43 42 41 39 37 35 33 31 31 31 32 33 33 32 31 28 26 24 22 21 19 18 17 16 14 13 12 11 11 11 10 10 9 9 9 8 8 9 9
39 40 41 42 43 43 42 41 40 39 37 35 33 32 33 34 34 34 33 32 30 27 25 24 23 22 21 20 18 16 15 14 14 13 13 12 12 11 11 11 11 11 11
37 38 40 41 42 42 42 42 42 41 39 38 35 33 32 34 35 35 35 34 33 31 29 27 26 24 24 23 21 20 19 18 17 16 15 15 14 14 14 14 14 13 13
34 37 39 41 42 42 42 42 43 42 40 39 37 35 33 31 34 35 35 36 35 34 32 30 29 27 26 26 25 24 22 21 19 18 18 17 17 16 16 16 16 16 16
30 33 36 39 42 43 43 42 42 43 42 41 39 37 35 33 33 34 35 36 36 35 34 32 31 29 29 28 27 26 25 24 22 21 20 19 18 18 17 17 17 17 17
26 28 32 35 39 41 43 44 43 43 43 43 41 40 39 37 35 34 34 36 37 37 36 34 33 32 31 30 28 28 27 26 24 23 22 21 20 19 18 18 18 18 18
21 24 28 31 35 38 41 42 44 43 43 44 43 42 41 40 39 36 34 34 35 37 37 36 35 34 32 31 30 29 28 27 26 25 23 22 21 20 19 19 18 18 19
18 20 22 26 30 34 37 41 42 43 43 44 44 44 43 41 40 40 38 36 35 36 37 37 37 36 34 32 31 30 29 28 27 26 25 23 22 21 20 20 19 19 20
14 16 17 20 24 28 32 37 40 42 43 44 45 45 45 44 42 42 41 38 36 36 37 38 38 37 36 34 32 31 30 29 28 27 26 25 24 22 22 21 21 21 22
12 13 14 16 19 23 27 31 36 40 42 43 44 45 45 46 46 45 44 42 40 38 38 38 39 39 38 37 35 33 32 31 29 28 27 27 26 24 23 22 23 23 24
12 12 13 14 16 18 21 25 29 33 37 40 43 45 46 47 46 46 45 44 43 41 39 40 41 40 40 39 38 36 33 32 30 29 29 28 27 26 25 24 25 25 25
12 12 12 13 14 16 18 21 25 29 33 36 40 43 45 46 47 47 47 45 44 44 42 42 42 41 40 40 39 38 36 34 32 31 30 29 28 27 27 26 26 25 26
14 13 13 12 12 13 15 17 20 24 28 32 36 39 42 43 45 46 45 45 45 45 43 43 43 42 41 41 41 41 38 37 35 33 32 31 30 29 28 27 27 26 26
16 15 15 14 13 13 14 15 17 19 23 26 30 34 38 40 42 43 44 43 43 43 44 43 42 42 41 40 41 40 38 36 35 34 33 32 30 29 28 28 27 27 27
18 17 16 15 14 14 14 15 16 16 19 22 25 29 33 37 39 41 42 41 42 41 42 42 42 42 41 40 40 38 38 36 35 34 33 33 31 30 29 28 28 28 28
20 19 18 17 15 14 14 14 14 15 17 18 21 24 27 30 34 38 39 40 40 40 40 40 40 40 39 40 39 38 37 36 35 34 34 33 32 30 29 29 29 28 27
22 21 20 18 17 16 15 14 14 15 16 17 18 20 22 24 28 32 35 37 37 36 37 38 38 38 37 36 35 35 35 36 35 34 34 33 32 30 29 28 27 26 26
24 23 22 21 19 18 16 15 14 14 15 17 17 18 20 22 23 26 28 31 32 32 32 33 35 35 35 34 34 33 33 34 34 34 33 32 31 29 28 27 26 25 25
26 25 24 23 21 19 17 15 13 12 12 14 16 17 18 20 21 22 24 26 28 28 28 29 30 31 32 32 32 33 33 33 33 32 31 29 28 27 26 25 25 24 23
28 27 26 25 23 21 18 15 12 10 10 11 13 15 17 17 18 19 21 23 25 26 26 26 28 29 30 30 30 31 31 32 31 30 29 28 27 26 25 24 24 23 21
29 29 28 26 24 22 19 16 12 8 7 8 10 12 14 16 17 17 18 20 21 23 24 25 25 25 26 27 27 27 27 27 27 27 26 26 25 24 24 24 22 21 20

GEFSMA_500_meanwind_060.txt.gz
Wind_Speed
33 32 30 27 28 28 27 27 26 23 22 21 21 20 18 16 15 14 13 12 11 11 10 9 9 8 8 8 8 8 8 7 7 7 7 6 5 5 4 4 4 3 3
40 36 34 32 30 29 29 28 29 27 25 23 23 23 22 20 19 17 16 15 14 13 12 11 10 10 9 9 9 9 8 8 7 7 7 6 6 5 4 4 4 3 3
43 42 39 37 34 33 32 29 29 29 28 27 26 25 25 24 23 21 19 18 17 16 15 14 13 12 11 10 10 9 9 8 8 8 7 7 6 5 5 4 4 4 4
43 44 43 42 39 37 36 34 31 30 30 30 29 28 27 26 26 25 23 22 20 19 17 16 15 14 13 12 11 11 10 10 9 9 8 8 7 7 6 6 5 5 5
41 42 43 43 43 41 39 37 35 34 32 31 29 30 29 28 28 28 27 26 24 22 21 19 18 17 16 15 14 13 12 11 11 10 10 9 9 8 8 7 7 7 7
38 40 42 43 43 43 43 41 40 38 35 33 32 31 31 30 31 31 30 29 28 26 24 23 21 20 19 18 17 16 15 14 13 12 11 11 10 10 9 9 9 9 9
35 37 40 41 42 43 43 43 43 42 40 38 36 35 34 33 33 32 33 32 31 30 29 27 25 24 22 21 19 18 17 16 15 14 13 12 12 11 11 11 10 10 11
30 34 37 40 41 42 42 43 43 43 42 41 40 39 37 36 35 34 34 33 33 33 32 31 29 27 26 24 23 21 20 19 18 17 16 15 14 13 13 12 12 12 12
25 29 33 37 40 42 43 43 44 44 43 42 41 42 41 39 38 36 36 35 35 35 35 34 33 31 29 28 26 25 23 22 21 20 18 17 16 16 15 15 14 14 14
21 24 27 31 35 38 41 43 44 44 44 43 43 42 43 42 41 38 37 36 36 36 37 36 36 35 34 32 30 28 26 25 24 23 21 20 19 18 17 17 16 16 16
17 20 23 27 30 34 37 40 42 44 44 44 44 43 43 43 43 41 39 38 38 38 38 38 37 37 36 34 33 31 29 28 27 25 24 23 22 21 20 19 19 18 18
15 17 19 23 26 30 34 37 40 42 44 45 45 45 44 44 43 44 43 41 39 39 39 40 39 38 38 37 36 34 32 30 29 28 27 26 25 23 22 21 20 20 19
13 14 16 18 22 25 29 33 37 41 43 45 45 45 45 45 43 44 44 43 42 42 41 40 40 39 39 39 37 36 34 32 31 30 29 28 27 25 24 23 22 21 20
13 13 14 15 18 21 24 28 33 37 41 44 45 46 46 46 45 45 45 44 43 43 43 42 40 40 40 40 38 37 36 34 33 32 31 30 29 28 26 25 24 23 21
13 13 13 14 15 18 21 24 27 31 35 39 43 45 46 46 46 46 47 46 45 43 44 43 43 41 39 39 39 39 37 35 34 33 32 31 30 29 28 27 25 24 23
14 14 14 14 15 16 18 21 24 27 31 34 38 42 44 46 46 47 48 48 47 46 45 44 44 43 42 39 39 40 39 37 35 34 32 31 31 30 29 28 27 26 26
17 16 16 16 16 17 18 19 21 24 27 31 34 37 41 44 45 47 48 48 49 49 47 47 46 44 43 40 39 39 40 39 37 36 34 33 32 32 31 30 29 29 27
19 18 18 17 17 17 17 18 20 22 24 27 30 34 37 41 43 45 47 48 49 49 48 49 49 47 45 42 40 40 40 39 38 37 36 35 34 33 32 32 32 30 29
21 20 20 19 18 17 16 17 18 20 22 25 28 31 34 37 40 42 45 46 48 48 48 49 50 49 48 45 42 42 42 42 41 40 38 37 37 36 35 34 32 31 30
23 22 21 21 20 19 18 18 18 19 20 22 24 28 31 33 36 39 42 44 46 47 47 48 49 49 48 47 45 43 43 43 43 42 41 40 40 39 37 36 34 32 30
25 24 23 22 21 20 19 18 18 18 19 20 22 24 27 30 32 34 38 41 44 45 46 47 48 48 47 46 46 45 44 45 44 43 43 43 42 41 39 38 36 33 31
26 25 24 24 23 22 20 19 17 17 18 19 20 22 24 27 29 31 33 36 40 43 44 45 47 47 45 46 47 46 44 44 43 42 41 41 41 41 40 39 36 34 32
27 26 26 26 25 23 21 19 17 16 16 16 18 20 21 23 25 27 29 32 34 37 40 41 43 44 45 45 46 46 44 43 43 41 41 41 40 40 40 38 36 35 33
27 28 27 27 26 25 23 21 17 15 13 13 14 16 18 19 21 23 25 27 29 31 35 38 39 39 41 43 43 43 43 42 41 41 41 42 41 40 38 36 35 33 31
28 28 28 27 27 26 25 22 18 14 12 10 10 12 15 17 18 21 23 25 26 27 30 32 34 36 37 37 38 39 39 39 40 41 41 40 39 38 35 33 32 31 29
28 28 28 28 27 27 26 24 19 15 12 8 6 8 11 13 15 18 19 22 23 25 26 28 30 32 35 35 36 36 37 38 37 37 38 36 35 35 34 32 31 31 29

GEFSMA_500_meanwind_066.txt.gz
Wind_Speed
35 34 34 33 33 31 30 29 29 28 27 25 23 21 19 18 16 14 14 13 13 12 11 11 10 10 10 10 10 10 10 10 9 9 8 8 7 7 7 6 5 4 3
32 33 34 34 33 33 32 31 30 29 29 29 27 25 23 21 19 17 16 15 15 14 13 12 12 12 11 11 11 11 11 10 10 9 9 8 7 7 6 5 5 4 4
29 30 31 33 33 33 34 32 31 31 29 28 27 26 25 24 23 21 19 18 17 16 15 14 14 13 13 12 12 12 12 11 11 10 9 9 8 7 7 6 5 4 4
27 29 29 30 31 32 33 34 33 31 31 29 27 27 27 26 25 24 23 21 20 19 18 16 16 15 14 14 13 13 12 12 11 11 10 9 8 8 7 6 5 5 4
24 26 28 29 30 31 33 34 33 33 33 31 29 28 28 28 28 27 26 25 24 22 20 19 18 17 16 16 15 15 14 13 13 12 11 10 9 9 8 7 7 6 6
21 23 25 26 28 30 31 34 35 34 33 32 32 30 29 29 29 29 28 28 27 25 24 22 21 20 19 18 17 16 16 15 14 13 13 12 11 10 9 9 8 8 8
17 20 22 24 26 28 30 32 34 35 35 34 33 31 30 30 30 30 29 29 29 28 27 26 24 23 22 21 20 19 18 17 17 16 15 13 12 12 11 10 10 9 9
14 17 19 21 23 26 28 30 32 33 34 35 34 33 32 31 31 31 30 29 30 30 29 28 28 27 25 24 23 22 21 20 19 18 17 16 15 14 13 12 12 11 11
13 15 17 19 21 23 25 28 30 32 33 35 35 35 34 34 32 33 31 31 31 31 31 31 30 30 29 28 27 25 24 23 22 21 20 18 17 16 15 14 14 13 13
12 14 15 17 19 21 23 25 28 30 32 34 35 36 36 35 35 34 34 34 33 32 32 32 33 34 33 32 30 29 27 26 25 24 23 21 20 18 17 17 16 16 15
12 13 13 15 17 18 21 23 26 29 31 33 34 36 36 37 37 37 36 36 36 35 35 35 34 35 34 34 33 32 31 29 28 27 25 24 23 22 20 19 19 18 18
12 12 12 14 15 16 18 20 23 26 29 31 34 35 36 37 37 38 38 39 39 39 38 37 37 34 35 35 34 34 34 33 31 30 29 27 26 25 24 23 22 21 20
13 13 12 13 13 14 16 18 20 23 26 29 32 34 36 37 38 39 39 39 41 42 41 40 39 37 36 37 34 34 36 35 35 34 32 31 29 28 27 26 25 24 23
16 15 13 13 13 13 15 16 19 21 24 27 31 33 35 36 38 40 40 41 42 42 43 42 41 40 39 38 38 36 37 37 37 36 35 34 32 31 30 28 27 26 25
18 17 15 14 14 15 16 18 19 20 23 25 28 31 33 36 38 40 41 42 43 43 43 43 43 42 41 40 40 39 39 39 39 39 38 37 35 34 33 31 30 29 28
20 19 17 16 16 15 16 17 19 21 22 24 26 29 31 34 36 38 40 41 43 44 43 43 43 43 43 43 41 40 40 40 40 40 39 38 37 36 35 33 32 31 30
22 21 19 18 18 17 17 17 19 20 22 24 25 27 29 32 34 36 39 40 42 43 43 43 44 44 44 43 42 42 41 41 41 40 39 39 39 38 37 35 34 33 32
24 23 21 20 19 19 19 19 20 21 22 23 25 26 27 30 32 35 37 39 41 42 42 42 44 45 45 44 43 43 42 42 41 40 40 40 40 39 38 37 36 34 33
25 24 23 21 21 20 20 20 20 20 21 22 23 25 26 28 30 32 35 37 39 41 42 42 43 45 45 45 44 43 43 42 43 42 41 40 40 39 39 39 37 36 35
25 25 25 24 23 22 21 20 20 19 19 19 21 22 24 26 28 30 32 35 37 39 41 41 42 43 44 44 45 44 44 43 42 42 41 40 39 39 39 39 38 37 36
26 26 26 26 25 25 24 22 21 19 17 17 18 20 22 23 25 27 29 32 34 37 39 40 41 43 44 44 44 44 45 44 44 42 41 41 41 40 40 39 39 38 37
26 26 27 27 27 27 26 24 22 20 17 16 16 17 19 20 22 24 26 29 32 34 35 37 39 40 41 42 43 44 44 44 44 43 43 41 42 42 40 39 39 38 38
26 26 26 27 28 28 27 25 23 21 19 17 15 14 15 17 19 20 22 25 27 30 32 34 36 37 38 39 41 43 43 43 42 42 43 43 42 42 41 41 41 41 40
25 26 26 26 27 27 27 26 25 23 21 19 16 14 12 13 14 16 18 20 23 25 27 30 33 35 36 37 38 40 42 43 42 42 42 42 42 42 42 42 40 40 41
25 25 26 26 26 26 26 26 25 24 22 20 17 14 12 11 11 12 14 16 19 22 24 25 28 32 35 36 37 38 40 41 41 40 40 41 42 42 41 41 40 39 40
25 25 25 26 26 26 25 25 25 23 22 20 18 15 13 11 9 9 10 13 15 18 20 22 24 28 32 34 36 37 38 39 40 40 40 40 40 40 40 39 38 38 38

GEFSMA_500_meanwind_072.txt.gz
Wind_Speed
29 30 31 32 31 30 30 31 31 30 29 27 25 24 23 21 19 17 16 15 14 13 12 12 12 12 13 13 13 12 12 12 12 11 11 10 10 10 9 8 7 6 5
25 27 29 30 30 30 30 30 30 31 31 29 28 27 25 24 22 21 19 18 17 15 14 14 14 13 14 14 14 13 13 13 12 12 12 11 11 10 10 8 7 6 5
21 24 26 27 28 29 30 30 30 30 32 32 30 29 29 28 26 24 23 21 19 18 17 16 15 14 15 15 15 14 14 14 13 13 13 12 11 11 10 9 8 7 6
18 20 22 24 26 27 29 30 31 31 31 33 32 30 30 30 29 27 25 24 22 20 19 18 17 16 15 16 16 15 15 14 14 14 13 13 12 11 11 10 8 7 6
15 17 19 21 23 25 26 27 29 30 32 33 33 33 32 31 31 30 28 27 26 23 22 21 19 17 17 17 16 16 16 16 15 15 14 13 13 12 11 11 9 9 8
12 14 16 18 21 23 24 25 27 28 30 33 34 33 32 31 31 32 30 29 28 26 25 23 22 20 19 18 18 18 17 17 17 16 15 15 14 13 12 12 11 10 9
10 12 14 15 17 19 22 24 26 27 29 30 33 34 33 32 32 33 33 31 30 29 28 27 25 24 22 21 20 20 19 19 18 18 17 16 15 15 14 13 12 12 11
7 9 11 12 15 17 19 22 24 27 28 29 31 33 34 35 35 35 35 35 34 32 31 30 28 27 26 25 24 23 22 21 20 20 19 18 17 16 16 15 14 13 12
7 7 8 9 12 15 17 19 22 24 27 29 30 33 34 35 36 37 36 36 36 36 34 33 33 31 30 28 27 26 25 24 23 22 21 20 19 19 18 17 16 15 14
8 7 7 8 9 11 14 17 20 22 24 27 29 31 34 34 35 35 36 36 37 37 36 35 35 35 34 32 31 30 28 27 26 25 24 23 22 21 20 19 18 17 16
10 9 7 7 8 9 11 14 16 19 22 25 27 30 32 34 35 36 37 37 37 38 38 38 37 38 37 36 34 33 32 31 29 28 27 26 25 24 23 22 21 20 19
13 11 10 8 7 8 9 11 14 17 20 23 26 28 30 32 35 36 37 38 38 38 39 39 39 39 40 40 38 36 35 34 34 32 31 29 28 27 25 25 24 23 21
15 14 12 10 9 8 9 11 13 15 18 21 24 27 29 31 34 36 37 39 39 40 39 39 39 40 41 41 40 38 37 37 37 36 34 33 31 30 29 28 27 26 25
17 15 14 13 11 10 10 11 12 14 16 19 22 25 28 30 33 36 37 39 40 40 41 41 41 40 42 43 43 42 40 39 39 39 38 36 35 34 32 31 30 29 28
18 17 16 15 13 12 12 12 13 14 16 18 21 23 26 29 31 34 37 39 40 41 42 42 42 43 44 44 44 43 42 40 39 40 40 39 38 37 36 35 33 32 31
19 18 18 17 15 14 14 14 13 14 15 17 19 22 24 27 30 33 35 37 40 41 42 43 44 44 45 45 46 45 44 42 41 41 41 40 40 39 38 37 36 35 34
20 19 19 18 18 17 16 15 14 14 15 16 18 20 23 25 28 31 33 36 38 40 41 42 44 45 45 46 46 46 47 45 44 43 42 41 41 40 40 39 39 38 37
21 20 19 19 19 18 18 17 15 15 15 15 16 18 20 23 26 29 31 33 36 39 41 42 44 46 46 46 47 47 47 47 46 45 45 43 42 41 41 40 40 40 39
21 21 20 20 20 20 19 18 17 16 16 15 15 16 18 20 23 25 28 31 33 36 39 41 43 45 46 47 47 48 48 48 48 47 47 46 44 43 42 41 40 40 40
21 21 21 21 21 21 20 20 19 18 17 16 14 14 15 16 18 21 24 27 30 33 36 38 41 43 45 46 47 47 47 47 48 48 47 46 46 45 44 43 42 41 41
21 21 21 22 21 21 21 21 20 19 18 16 15 14 13 13 14 16 19 22 25 29 32 35 38 41 43 44 45 46 47 48 48 48 48 47 47 46 45 44 43 42 41
20 21 21 21 22 21 21 21 21 20 19 17 16 14 12 10 11 13 15 17 20 24 27 30 34 37 41 43 44 45 46 47 47 47 48 48 48 48 46 44 43 42 41
20 21 21 21 21 21 21 21 21 20 20 18 16 14 12 11 10 10 12 14 16 18 22 25 29 32 36 39 41 42 44 45 46 46 47 48 49 48 47 45 44 43 42
21 21 20 20 20 20 20 21 21 20 19 19 17 15 13 12 11 10 11 11 13 15 18 21 25 28 31 34 37 39 41 43 45 45 45 45 46 47 46 46 46 44 43
21 21 20 20 20 20 20 20 20 20 19 18 17 16 14 13 12 11 11 11 12 13 15 17 21 24 28 30 33 36 38 40 42 43 44 44 45 46 46 46 45 45 45
21 21 20 20 20 20 19 19 19 19 19 18 18 17 16 14 14 13 12 12 11 11 12 15 17 20 24 27 30 33 35 38 40 41 43 44 44 45 46 45 45 45 45

GEFSMA_500_meanwind_078.txt.gz
Wind_Speed
21 23 26 27 28 28 28 28 28 29 29 26 25 24 23 21 19 17 16 15 14 13 12 11 12 12 12 13 13 13 13 12 12 12 12 12 12 12 11 11 9 8 7
18 20 22 24 26 27 27 28 28 27 28 28 28 26 24 23 23 20 19 17 16 15 14 13 13 13 13 14 14 14 13 13 12 13 13 13 12 12 11 10 9 8 7
16 17 19 21 22 24 26 27 27 28 27 28 29 28 26 25 24 23 22 20 18 17 16 15 15 15 15 15 15 15 15 14 13 13 14 13 13 12 12 11 10 9 8
13 14 15 17 19 21 23 25 26 26 27 28 29 29 28 27 26 25 24 23 22 20 19 17 17 16 16 17 17 16 16 15 15 14 14 14 13 13 12 12 11 10 8
10 11 12 14 16 17 19 22 24 26 26 27 28 29 30 29 28 26 26 26 25 23 22 21 20 18 18 18 18 18 17 17 16 15 15 15 14 14 13 12 11 10 9
8 8 9 11 13 15 17 19 21 23 25 26 27 29 30 31 31 28 28 28 27 26 25 24 23 21 20 20 20 19 18 18 18 17 17 16 16 15 14 13 12 11 11
8 6 7 8 10 12 14 17 19 21 23 25 27 27 29 31 32 31 30 29 30 29 28 27 26 25 24 22 21 21 21 21 20 19 18 18 17 16 15 14 13 12 12
9 6 5 6 8 9 12 14 17 19 21 24 26 28 29 30 31 30 31 31 32 32 31 31 29 28 26 25 24 23 23 22 22 21 20 19 19 18 17 16 15 14 13
11 9 7 5 6 7 10 12 14 17 20 22 24 26 28 29 31 32 32 32 32 33 32 32 31 31 30 28 27 26 25 24 23 23 22 21 20 20 19 18 17 16 15
13 11 9 7 6 5 7 9 12 15 18 20 22 25 27 28 29 32 34 34 34 34 35 35 34 34 33 31 30 29 28 27 26 25 24 23 22 22 21 20 19 18 17
14 12 11 9 7 5 5 7 9 12 15 18 20 23 25 27 29 29 33 34 35 35 36 37 37 37 36 35 34 33 31 30 29 28 27 26 25 24 23 22 21 20 19
15 13 12 11 9 7 5 5 7 10 13 15 17 20 23 26 29 29 30 33 36 38 38 39 39 39 39 38 38 37 35 33 32 31 30 29 28 27 26 25 24 23 22
15 14 13 12 10 8 7 7 7 8 11 13 16 18 21 24 27 29 31 32 35 38 39 41 40 41 42 41 41 41 39 38 36 35 33 32 31 30 29 28 27 26 25
15 14 14 13 11 9 8 7 7 8 9 11 14 17 19 22 25 28 31 33 34 37 39 40 42 43 44 44 44 43 42 41 39 38 37 36 35 33 32 31 30 29 28
15 15 14 14 12 11 10 9 9 9 9 11 13 15 17 20 22 26 29 32 33 35 37 39 42 43 43 44 45 45 45 44 42 42 41 40 39 37 36 35 34 33 31
16 15 15 14 13 13 12 11 11 10 10 10 12 13 16 19 21 23 26 29 32 34 36 38 40 43 44 44 45 45 47 47 46 45 44 43 43 42 40 39 37 36 35
16 15 15 15 14 14 13 13 12 12 11 11 11 12 14 16 18 21 25 27 29 32 35 37 38 41 42 44 45 46 47 48 48 48 47 47 47 46 44 42 41 40 38
16 16 16 15 15 15 14 14 13 13 12 12 12 11 12 13 16 18 21 24 26 29 32 35 37 39 41 43 45 46 46 47 49 50 49 48 48 47 46 45 44 43 42
16 16 16 15 15 15 15 14 14 13 13 13 12 11 11 12 13 15 17 20 23 25 28 32 35 38 40 41 44 46 46 46 47 49 50 51 50 49 48 47 47 46 45
16 16 16 16 16 16 15 15 14 13 13 13 13 12 11 10 10 12 13 16 18 21 24 28 31 34 37 39 41 44 45 47 47 48 50 50 51 51 51 48 47 47 46
16 16 16 16 15 15 15 15 15 14 13 13 13 12 12 11 10 10 11 12 14 17 20 23 26 29 32 35 38 41 43 45 46 46 48 49 50 51 51 51 50 48 47
17 16 16 16 15 15 15 15 15 14 14 14 13 13 12 12 11 10 10 11 12 14 16 18 21 25 27 29 32 35 38 42 44 45 46 47 49 49 50 51 51 50 49
17 17 16 16 16 15 15 15 14 14 14 14 13 13 13 12 12 11 10 10 11 12 14 15 17 20 22 24 26 29 33 37 40 43 45 46 47 48 49 50 51 51 50
19 17 16 16 16 15 15 15 14 14 14 14 13 13 13 13 13 12 11 11 11 11 12 13 15 18 20 22 24 26 29 32 35 38 41 42 44 46 48 49 50 51 52
19 18 17 16 16 15 15 15 15 14 14 14 13 13 13 13 13 13 12 12 12 12 12 13 13 15 17 19 20 23 25 28 30 34 37 39 41 44 46 48 48 50 51
20 19 18 17 17 16 16 16 15 15 15 14 14 14 13 13 13 13 13 13 12 12 13 13 13 14 15 16 17 19 21 24 27 30 33 34 36 40 43 45 47 48 48

GEFSMA_500_meanwind_084.txt.gz
Wind_Speed
19 20 21 22 24 24 25 27 26 26 26 26 25 24 23 23 21 20 19 18 17 15 15 14 14 14 16 16 16 16 16 15 15 15 15 15 15 14 14 13 11 10 9
15 17 18 19 20 22 23 24 26 26 26 25 25 25 25 24 22 22 21 20 18 17 16 16 15 14 16 16 16 16 16 16 15 15 15 15 15 15 14 14 13 11 10
12 13 14 16 18 19 20 22 24 25 25 24 25 26 26 25 24 23 22 21 20 19 18 17 16 15 16 16 16 16 16 16 16 15 15 15 16 16 15 14 13 12 11
10 10 11 13 15 17 18 20 21 23 25 25 25 26 26 27 26 25 24 22 21 20 20 18 17 16 16 17 17 17 17 17 17 16 15 15 16 16 16 15 14 13 12
9 8 8 10 12 14 16 18 19 20 22 24 24 26 27 27 27 26 25 25 24 22 21 20 19 18 18 18 18 18 18 18 18 17 16 16 16 17 16 15 15 13 12
9 7 6 7 9 12 14 15 17 18 20 23 25 26 26 27 28 28 27 26 26 25 24 23 22 21 20 19 19 20 20 19 19 18 17 17 17 17 17 16 16 15 14
9 7 5 4 5 8 12 13 14 16 17 20 23 26 25 25 27 29 29 29 28 27 26 25 25 23 22 21 20 21 21 21 20 19 18 19 18 18 18 17 17 16 15
9 7 5 3 2 4 8 10 13 15 16 18 20 23 25 26 27 29 29 29 29 29 28 28 27 25 24 23 23 23 23 22 21 20 20 20 19 19 19 19 18 17 16
10 8 7 4 2 2 4 7 10 12 14 17 19 20 21 24 27 29 29 29 28 29 30 29 29 28 26 25 25 25 25 23 23 22 21 22 21 21 20 20 20 19 18
11 9 8 6 4 1 2 4 7 10 12 15 18 19 20 22 24 27 29 30 30 30 31 32 31 30 29 28 28 28 27 26 25 25 24 24 23 23 22 22 21 21 20
11 10 8 7 5 3 1 1 4 6 9 11 14 18 19 22 22 24 27 29 30 30 31 32 32 32 32 31 31 31 30 29 27 27 26 26 25 25 24 24 23 23 22
11 10 9 8 6 5 3 2 2 4 6 9 12 14 17 20 22 23 25 27 29 31 32 33 34 34 33 34 34 33 33 31 30 30 29 28 28 27 27 26 26 25 25
11 10 9 8 7 6 4 3 2 2 4 7 10 12 16 18 20 22 24 26 28 30 32 33 33 35 35 35 36 36 35 35 34 33 32 32 31 30 29 29 28 28 27
11 11 10 9 8 7 6 4 4 3 4 5 7 10 13 16 18 20 22 24 27 28 30 33 34 36 37 38 38 38 38 38 38 37 36 35 34 33 32 32 31 30 29
11 11 11 10 9 8 7 6 5 4 4 4 6 7 10 13 16 18 21 22 24 26 28 31 33 35 37 38 39 40 40 40 40 40 39 38 37 37 36 35 35 34 33
11 11 10 10 10 9 8 7 6 6 5 5 6 7 8 10 13 16 19 21 23 25 26 29 31 34 36 38 38 39 40 42 42 42 42 42 41 40 40 39 38 37 36
11 11 10 10 10 9 8 8 7 6 6 6 6 6 7 8 11 13 15 19 22 24 26 28 29 31 33 36 38 39 41 42 43 44 44 44 44 43 43 43 42 41 40
12 11 11 10 10 9 9 9 8 7 6 6 6 6 7 8 8 11 13 16 19 22 24 27 28 29 31 33 35 38 39 40 42 43 44 45 46 46 46 45 45 44 44
12 12 11 11 10 10 10 10 9 8 7 7 7 7 7 7 8 9 11 14 16 19 21 24 26 28 30 31 34 35 37 38 41 43 45 46 47 48 48 48 48 48 47
13 13 12 12 11 10 10 10 10 9 9 8 8 8 8 8 8 9 10 12 14 16 19 21 24 26 27 29 31 33 34 36 39 41 43 45 47 49 49 49 50 50 50
13 13 13 12 12 11 11 10 10 10 9 9 9 8 8 8 9 9 10 11 12 13 16 18 20 22 24 25 28 30 31 33 35 37 39 42 43 45 48 49 50 50 51
14 14 14 13 12 12 11 11 10 10 10 10 9 9 9 9 9 9 10 10 11 12 13 15 17 20 22 23 25 27 28 30 32 34 36 39 41 43 45 47 48 49 50
14 14 14 14 13 13 12 12 11 11 10 10 10 10 10 10 10 10 10 10 11 11 12 13 15 17 19 21 23 24 26 27 29 30 32 35 38 40 42 44 45 48 49
14 14 14 14 14 13 13 13 12 12 12 11 11 11 11 11 10 10 11 11 11 12 12 13 14 15 17 18 20 21 23 25 26 28 30 31 34 37 39 40 41 43 45
14 14 14 14 14 14 14 14 14 13 13 13 12 12 12 12 12 12 12 12 12 12 13 13 13 14 15 16 18 19 20 22 24 26 28 29 31 33 35 37 39 41 43
14 14 15 15 15 15 15 15 15 15 14 14 14 14 14 13 13 13 13 13 13 13 14 14 14 14 14 15 17 18 19 21 22 24 26 27 28 30 31 33 36 38 39

GEFSMA_500_meanwind_090.txt.gz
Wind_Speed
17 17 17 17 18 18 20 21 22 23 24 25 26 25 24 24 24 24 22 22 20 20 19 17 16 15 15 16 17 16 16 16 16 15 15 14 13 12 10 9 8 7 6
16 16 16 16 17 17 18 20 21 22 23 24 25 25 23 23 23 24 24 23 22 21 19 18 17 16 15 16 17 17 17 17 17 16 15 15 14 13 12 11 9 9 7
16 15 15 15 14 15 15 17 19 20 22 23 24 24 24 24 23 24 24 24 22 21 20 19 17 16 16 16 17 17 18 18 17 16 16 15 15 14 13 12 11 10 9
16 15 14 14 13 12 13 14 15 17 19 21 23 24 24 24 23 24 24 24 23 22 21 20 18 16 16 16 17 18 17 17 17 16 16 15 15 15 14 13 12 11 10
16 15 14 12 11 10 11 13 14 16 17 19 21 23 23 24 24 24 24 24 24 24 22 21 20 18 17 17 17 18 18 18 17 17 16 15 15 15 15 14 13 13 12
15 14 13 11 10 8 8 10 12 15 16 17 19 21 23 24 23 24 24 24 25 24 23 22 21 20 18 17 17 18 18 18 18 18 17 16 15 15 15 15 15 14 13
15 13 12 10 9 7 5 6 9 12 13 14 16 19 21 23 23 23 24 24 26 25 24 24 23 22 20 19 18 18 18 19 19 18 17 17 16 15 16 16 16 15 15
15 13 11 10 8 6 4 4 6 8 10 12 14 16 18 21 24 25 24 25 25 26 26 25 24 23 22 21 21 20 20 20 19 19 19 18 17 17 16 17 17 17 16
15 13 11 10 9 6 4 2 3 6 7 9 12 15 16 18 21 23 24 24 25 25 26 25 24 24 23 23 22 21 21 21 21 21 20 19 19 18 18 18 19 19 18
14 13 12 11 9 7 4 2 1 3 5 7 9 12 14 16 18 19 22 24 24 25 26 26 26 26 26 25 24 23 23 22 22 23 22 21 21 20 20 19 19 20 20
13 12 11 10 9 7 5 3 1 1 3 5 7 10 12 15 16 17 19 21 23 24 26 26 26 27 27 27 26 26 26 25 24 24 24 23 23 22 21 21 21 21 21
13 11 10 9 8 7 6 4 2 1 1 4 6 8 10 12 14 16 19 20 22 24 26 27 27 28 28 28 28 29 29 28 27 27 26 25 25 24 23 22 22 23 23
13 12 10 9 8 7 5 4 3 3 2 2 5 7 9 11 13 14 16 18 20 22 24 26 27 28 29 29 29 30 30 29 29 30 29 28 28 26 26 25 25 25 25
13 12 11 10 9 7 6 5 4 3 2 2 3 5 7 10 12 13 15 16 18 20 22 23 25 26 27 29 30 31 31 30 30 31 31 31 30 29 29 28 27 27 27
13 12 11 10 9 8 7 6 5 4 3 2 3 4 5 8 11 13 14 15 17 19 21 22 24 26 27 28 30 31 32 32 32 33 33 33 33 32 32 31 30 29 29
13 12 11 10 9 8 8 7 6 5 4 3 3 3 4 5 8 10 11 13 15 17 19 21 24 25 27 29 29 30 31 32 33 34 35 35 35 35 35 34 34 34 33
14 13 11 11 10 9 8 7 6 5 5 4 4 4 4 5 6 7 9 11 13 15 17 19 22 24 26 28 29 30 31 32 33 34 35 36 37 37 37 37 37 36 36
14 13 12 11 10 9 8 8 7 6 5 4 4 4 5 6 6 7 8 9 10 12 14 16 19 21 23 25 27 29 30 31 32 34 34 36 37 38 38 39 38 38 38
14 13 13 12 11 10 9 8 7 6 6 5 5 5 5 6 6 7 7 9 10 11 13 14 16 18 21 23 25 27 28 29 31 33 34 35 37 37 38 39 40 40 40
13 13 12 12 11 10 9 9 8 7 7 6 6 6 6 6 7 7 8 9 10 11 13 14 15 17 19 21 22 24 26 28 30 32 34 35 37 38 38 39 40 41 42
13 13 12 12 11 11 10 9 9 8 7 7 7 7 7 7 8 8 9 10 11 12 13 14 16 17 18 19 21 22 24 26 29 31 32 34 36 37 38 39 39 40 42
13 12 12 11 11 11 11 10 10 9 9 8 8 8 8 9 9 9 10 11 12 13 14 14 15 16 17 19 20 21 23 24 26 28 30 32 34 34 36 37 38 39 41
13 12 12 11 11 11 11 11 11 10 10 10 10 10 9 10 10 10 11 12 13 13 14 15 15 16 17 18 19 21 22 23 24 25 27 28 31 32 34 34 35 37 39
13 12 12 12 12 12 12 12 12 11 11 11 11 11 11 11 11 12 12 13 13 14 14 15 16 16 17 18 19 20 21 22 23 24 24 25 27 29 31 33 34 35 36
13 13 13 12 12 13 13 13 13 13 12 12 12 12 12 12 12 12 13 13 14 14 14 15 16 16 17 17 18 19 20 20 21 23 23 24 26 26 28 30 32 33 34
14 14 14 13 13 13 13 13 13 13 13 13 13 13 13 13 13 13 13 14 14 15 15 15 16 16 17 17 18 19 19 20 20 21 23 23 25 25 26 28 29 31 32